Probability
0 0 0 0 0 0 0 0 0 0 0 0 0 0 0 0 0 0 0 0 0 0 0 0 0 0 0 0 0 0 0 0 0 0 0 0 0 0
0 0 0 0 0 0 0 0 0 0 0 0 0 0 0 0 0 0 0 0 0 0 0 0 0 0 0 0 0 0 0 0 0 0 0 0 0 0
0 0 0 0 0 0 0 0 0 0 0 0 0 0 0 0 0 0 0 0 0 0 0 0 0 0 0 0 0 0 0 0 0 0 0 0 0 0
0 0 0 0 0 0 0 0 0 0 0 0 0 0 0 0 0 0 0 0 0 0 0 0 0 0 0 0 0 0 0 0 0 0 0 0 0 0
0 0 0 0 0 0 0 0 0 0 0 0 0 0 0 0 0 0 0 0 0 0 0 0 0 0 0 0 0 0 0 0 0 0 0 0 0 0
0 0 0 0 0 0 0 0 0 0 0 0 0 0 0 0 0 0 0 0 0 0 0 0 0 0 0 0 0 0 0 0 0 0 0 0 0 0
0 0 0 0 0 0 0 0 0 0 0 0 0 0 0 0 0 0 0 0 0 0 0 0 0 0 0 0 0 0 0 0 0 0 0 0 0 0
0 0 0 0 0 0 0 0 0 0 0 0 0 0 0 0 0 0 0 0 0 0 0 0 0 0 0 0 0 0 0 0 0 0 0 0 0 0
0 0 0 0 0 0 0 0 0 0 0 0 0 0 0 0 0 0 0 0 0 0 0 0 0 0 0 0 0 0 0 0 0 0 0 0 0 0
0 0 0 0 0 0 0 0 0 0 0 0 0 0 0 0 0 0 0 0 0 0 0 0 0 0 0 0 0 0 0 0 0 0 0 0 0 0
0 0 0 0 0 0 0 0 0 0 0 0 0 0 0 0 0 0 0 0 0 0 0 0 0 0 0 0 0 0 0 0 0 0 0 0 0 0
0 0 0 0 0 0 0 0 0 0 0 0 0 0 0 0 0 0 0 0 0 0 0 0 0 0 0 0 0 0 0 0 0 0 0 0 0 0
0 0 0 0 0 0 0 0 0 0 0 0 0 0 0 0 0 0 0 0 0 0 0 0 0 0 0 0 0 0 0 0 0 0 0 0 0 0
0 0 0 0 0 0 0 0 0 0 0 0 0 0 0 0 0 0 0 0 0 0 0 0 0 0 0 0 0 0 0 0 0 0 0 0 0 0
0 0 0 0 0 0 0 0 0 0 0 0 0 0 0 0 0 0 0 0 0 0 0 0 0 0 0 0 0 0 0 0 0 0 0 0 0 0
0 0 0 0 0 0 0 0 0 0 0 0 0 0 0 0 0 0 0 0 0 0 0 0 0 0 0 0 0 0 0 0 0 0 0 0 0 0
0 0 0 0 0 0 0 0 0 0 0 0 0 0 0 0 0 0 0 0 0 0 0 0 0 0 0 0 0 0 0 0 0 0 0 0 0 0
0 0 0 0 0 0 0 0 0 0 0 0 0 0 0 0 0 0 0 0 0 0 0 0 0 0 0 0 0 0 0 0 0 0 0 0 0 0
0 0 0 0 0 0 0 0 0 0 0 0 0 0 0 0 0 0 0 0 0 0 0 0 0 0 0 0 0 0 0 0 0 0 0 0 0 0
0 0 0 0 0 0 0 0 0 0 0 0 0 0 0 0 0 0 0 0 0 0 0 0 0 0 0 0 0 0 0 0 0 0 0 0 0 0
0 0 0 0 0 0 0 0 0 0 0 0 0 0 0 0 0 0 0 0 0 0 0 0 0 0 0 0 0 0 0 0 0 0 0 0 0 0
0 0 0 0 0 0 0 0 0 0 0 0 0 0 0 0 0 0 0 0 0 0 0 0 0 0 0 0 0 0 0 0 0 0 0 0 0 0
0 0 0 0 0 0 0 0 0 0 0 0 0 0 0 0 0 0 0 0 0 0 0 0 0 0 0 0 0 0 0 0 0 0 0 0 0 0
Wind_Speed
1 1 1 1 1 1 1 2 3 5 5 4 4 4 6 5 12 9 7 19 27 28 29 29 29 29 29 29 29 29 29 29 29 29 29 30 30 31
1 1 2 1 1 1 2 3 3 5 8 4 4 6 7 9 17 11 9 26 26 28 29 29 29 29 30 30 30 30 30 30 30 30 30 30 30 30
1 2 3 2 2 2 2 3 4 4 10 8 5 6 8 9 10 9 10 10 11 25 28 29 29 29 30 30 30 30 30 30 30 30 30 30 30 30
2 2 3 2 3 3 3 4 4 5 8 12 7 6 8 9 10 10 12 12 9 21 27 28 29 29 30 30 30 30 30 30 30 29 29 29 30 30
3 3 3 3 4 3 4 4 4 6 6 9 10 7 7 9 10 11 11 9 12 16 22 25 27 29 30 30 30 30 30 30 29 29 28 28 29 29
3 4 4 4 5 4 4 5 5 6 6 8 10 9 8 8 8 8 10 6 9 12 17 20 24 28 29 30 31 30 30 29 29 28 28 28 28 29
5 5 4 6 9 8 7 5 5 5 6 8 10 11 9 8 8 7 11 10 9 9 10 10 11 11 14 21 25 27 29 29 29 29 29 28 28 28
6 5 5 6 10 14 16 16 14 10 9 9 10 12 12 10 8 9 11 13 13 5 7 12 10 12 11 9 21 29 29 29 29 29 28 27 27 27
6 5 5 5 10 5 11 16 14 20 21 15 13 12 12 10 9 11 12 14 15 10 10 15 10 12 10 13 26 30 31 30 29 27 26 26 27 28
6 5 5 5 6 10 7 6 7 10 15 12 10 11 11 10 11 14 14 12 12 9 7 13 13 13 13 10 22 29 28 26 25 26 28 28 28 27
6 6 8 6 14 18 10 8 9 9 16 21 23 22 26 27 21 10 8 10 14 11 5 7 9 12 13 12 13 21 22 25 28 29 28 28 27 27
5 6 13 15 18 19 10 9 12 11 10 11 14 16 14 15 20 10 7 10 12 10 3 4 6 9 11 6 5 8 13 21 26 27 27 28 28 17
5 5 6 18 20 22 20 10 14 16 9 8 9 9 8 7 8 7 7 8 11 12 8 7 8 7 9 12 9 8 10 10 11 15 21 25 26 22
5 5 7 19 22 23 17 17 22 18 6 7 8 8 9 9 9 10 11 11 12 15 14 13 11 11 12 15 14 11 9 10 11 12 11 17 20 25
7 15 19 22 21 13 15 19 15 7 6 7 8 9 7 8 10 10 11 10 12 13 12 13 13 12 12 14 14 14 15 13 10 8 10 11 12 12
7 12 18 19 15 14 12 10 6 6 8 7 9 9 8 8 9 9 10 10 11 11 8 10 12 13 13 14 14 16 13 11 10 11 12 12 12 10
10 5 5 5 5 5 6 6 6 7 7 8 9 10 10 10 10 8 8 9 10 12 13 9 8 10 13 14 15 14 13 12 11 11 12 14 12 10
10 5 5 6 7 8 9 9 8 8 8 8 9 9 10 10 11 10 9 10 11 11 12 12 11 12 9 9 14 13 11 11 12 12 12 13 14 11
5 5 6 7 7 7 8 8 9 9 8 9 9 9 9 10 10 10 10 10 10 11 11 10 10 10 13 14 8 9 10 13 13 12 10 11 14 13
4 5 6 7 7 8 8 9 9 9 9 9 9 9 9 10 10 10 10 11 12 12 12 10 8 9 11 13 14 14 12 11 12 14 13 11 11 15
6 6 7 7 8 8 8 9 9 10 10 10 10 10 10 10 10 10 11 16 14 11 12 12 11 17 12 10 11 11 10 11 14 14 14 13 12 10
6 7 8 8 8 8 8 9 9 10 10 10 10 10 10 9 11 12 11 12 11 11 12 12 11 10 9 10 12 13 13 13 13 17 17 15 11 10
7 8 8 8 8 8 8 9 11 10 10 10 10 10 10 10 10 10 11 11 11 12 12 11 10 9 9 10 11 12 15 15 12 12 11 16 19 19
Wind_Direction
169 169 219 249 249 251 254 239 257 286 290 277 288 326 329 311 306 305 293 302 303 301 302 302 300 299 298 298 297 295 293 290 288 285 283 280 278 276
156 185 264 262 269 266 260 259 248 267 282 277 293 297 305 308 305 304 297 301 301 300 299 298 299 298 298 297 296 294 293 290 288 286 284 282 280 278
240 232 251 260 266 272 277 274 268 266 281 286 280 292 296 294 295 288 288 285 287 296 299 299 298 298 298 297 295 294 292 291 289 287 286 284 282 281
270 275 277 282 281 275 270 268 270 271 282 294 295 293 290 290 290 289 296 295 291 297 299 300 301 300 298 297 295 295 293 292 291 289 287 285 283 281
271 265 268 275 277 272 275 278 279 288 284 293 298 294 290 290 291 290 289 290 294 298 302 301 299 298 297 299 299 298 297 294 292 289 286 284 282 279
288 270 259 254 257 262 273 271 276 279 281 288 293 294 289 285 286 295 297 285 291 298 295 294 295 299 298 298 297 296 295 293 290 288 286 283 280 278
303 289 276 281 287 288 285 273 277 278 284 289 291 293 294 296 295 294 299 299 289 283 284 288 291 288 289 291 293 292 291 292 292 291 290 287 284 280
302 296 295 297 297 302 306 305 302 300 298 292 293 293 295 293 292 294 298 300 297 273 287 294 287 286 285 281 289 295 296 297 296 294 291 288 286 283
289 290 294 296 308 299 295 299 299 299 299 296 293 292 292 291 290 291 289 288 290 293 295 293 290 288 286 290 296 297 298 297 295 293 293 292 289 285
296 295 293 290 291 298 284 286 280 290 291 291 283 283 288 287 280 286 288 289 286 281 274 287 293 292 293 288 293 292 293 294 298 300 298 295 291 289
312 318 318 301 303 309 311 300 294 290 299 299 299 300 300 301 302 301 299 299 297 295 279 273 287 300 294 285 282 289 295 300 299 297 296 295 295 294
311 311 314 311 310 314 311 301 301 298 295 298 299 299 296 295 303 300 297 297 296 297 275 282 294 310 301 270 262 285 291 293 295 296 297 297 296 292
297 296 298 311 312 311 311 303 299 304 300 300 299 297 296 294 295 290 287 288 290 284 288 297 289 285 279 293 293 282 281 286 292 293 295 295 293 293
307 299 302 312 313 313 313 307 308 313 306 300 297 297 299 299 299 297 291 282 272 275 282 284 283 285 286 287 292 294 291 287 286 288 285 288 292 294
310 314 316 316 316 313 309 313 319 314 300 297 297 296 292 291 296 297 293 286 280 274 271 269 270 275 274 279 284 289 296 296 283 279 286 290 291 292
308 308 315 314 314 316 318 319 311 298 304 299 300 297 298 297 298 298 300 304 300 296 273 255 258 268 276 277 279 284 285 284 289 290 291 292 288 281
313 307 305 308 313 315 311 306 304 307 308 302 300 301 302 301 300 300 297 299 296 299 304 301 273 264 264 271 277 277 281 284 285 292 297 295 290 283
327 320 315 317 316 315 314 313 311 308 306 303 300 298 298 299 300 300 297 296 296 297 298 302 305 303 290 261 244 265 279 288 293 292 288 292 295 292
340 317 312 310 308 308 307 305 304 304 302 299 297 297 297 297 297 298 299 298 296 295 295 296 300 304 309 310 284 239 274 293 296 295 291 291 293 293
316 307 306 306 306 305 304 303 302 302 301 299 297 296 295 295 296 296 297 297 299 299 299 298 296 300 301 300 299 296 283 284 296 300 301 295 284 283
311 307 304 303 302 301 300 299 298 298 298 298 296 295 294 295 294 295 296 299 302 300 301 302 296 301 296 291 292 297 297 288 290 297 305 304 303 298
307 306 303 300 300 299 297 297 297 297 297 295 294 293 293 292 293 296 297 299 299 297 298 298 299 303 303 303 304 305 308 310 306 302 298 295 304 308
305 304 301 300 297 295 295 294 294 293 293 292 292 293 294 295 295 295 295 296 297 301 306 309 312 310 307 304 305 308 309 315 316 318 312 312 315 312